This is the latest recevied weather packets stored in our database for station/object WE1C. If no packets are shown the sender has not sent any weather packets the latest 10 day(s).
| Time | Temp. | Humidity | Pressure | Rain* | Wind** | Luminosity | Snow |
|---|---|---|---|---|---|---|---|
| 1777940879 | 15° C | 52% | 1038.4 hPa | 0 mm | - | 0 W/m² | - |
| 1777940577 | 15.56° C | 51% | 1038.4 hPa | 0 mm | - | 0 W/m² | - |
| 1777940275 | 15.56° C | 51% | 1038.2 hPa | 0 mm | - | 0 W/m² | - |
| 1777939972 | 15.56° C | 51% | 1038 hPa | 0 mm | - | 0 W/m² | - |
| 1777939669 | 15.56° C | 51% | 1038 hPa | 0 mm | - | 0 W/m² | - |
| 1777939367 | 15.56° C | 51% | 1037.7 hPa | 0 mm | - | 0 W/m² | - |
| 1777939063 | 16.11° C | 50% | 1037.7 hPa | 0 mm | - | 0 W/m² | - |
| 1777938759 | 16.11° C | 49% | 1037.7 hPa | 0 mm | - | 0 W/m² | - |
| 1777938457 | 16.11° C | 49% | 1037.4 hPa | 0 mm | - | 2 W/m² | - |
| 1777938154 | 16.67° C | 48% | 1037.2 hPa | 0 mm | - | 5 W/m² | - |
| 1777937850 | 16.67° C | 47% | 1037.3 hPa | 0 mm | - | 7 W/m² | - |
| 1777937546 | 16.67° C | 47% | 1037.2 hPa | 0 mm | - | 10 W/m² | - |
| 1777937243 | 17.22° C | 46% | 1037.4 hPa | 0 mm | - | 14 W/m² | - |
| 1777936940 | 17.22° C | 46% | 1037 hPa | 0 mm | - | 17 W/m² | - |
| 1777936636 | 17.22° C | 45% | 1036.9 hPa | 0 mm | - | 20 W/m² | - |
| 1777936333 | 17.22° C | 45% | 1036.7 hPa | 0 mm | - | 23 W/m² | - |
| 1777936029 | 17.78° C | 44% | 1037 hPa | 0 mm | - | 26 W/m² | - |
| 1777935728 | 17.78° C | 43% | 1036.7 hPa | 0 mm | - | 29 W/m² | - |
| 1777935426 | 18.33° C | 42% | 1036.7 hPa | 0 mm | - | 32 W/m² | - |
| 1777935122 | 18.33° C | 42% | 1036.7 hPa | 0 mm | - | 35 W/m² | - |
| 1777934820 | 18.89° C | 40% | 1036.5 hPa | 0 mm | - | 38 W/m² | - |
| 1777934516 | 19.44° C | 39% | 1036.3 hPa | 0 mm | - | 42 W/m² | - |
| 1777934213 | 19.44° C | 38% | 1036.5 hPa | 0 mm | - | 54 W/m² | - |
| 1777933908 | 19.44° C | 36% | 1036.6 hPa | 0 mm | - | 69 W/m² | - |
| 1777933606 | 20° C | 36% | 1036.1 hPa | 0 mm | - | 66 W/m² | - |
* Rain latest hour (hover to see other rain measurements)
** Current wind speed in m/s (hover to see current wind gust speed)